Regional Weather Roundup
Issued by NWS

Home | Current Version | Previous Version | Text Only | Print | Product List | Glossary On
Versions: 1 2 3 4 5 6 7 8 9 10 11 12 13 14 15 16 17 18 19 20 21 22 23 24 25 26 27 28 29 30 31 32 33 34 35 36 37 38 39 40 41 42 43 44 45 46 47 48 49 50
000
ASUS43 KMKX 200321
RWRWI

WISCONSIN REGIONAL WEATHER ROUNDUP
NATIONAL WEATHER SERVICE MILWAUKEE/SULLIVAN WI
900 PM CST SUN FEB 19 2017

NOTE: "FAIR" INDICATES FEW OR NO CLOUDS BELOW 12,000 FEET WITH NO
SIGNIFICANT WEATHER AND/OR OBSTRUCTIONS TO VISIBILITY.

WIZ001-002-006>008-014>016-023>028-200400-
NORTHWEST WISCONSIN

CITY           SKY/WX    TMP DP  RH WIND       PRES   REMARKS
SUPERIOR ARPT  CLOUDY    34  33  94 NE10G20   29.98S WCI  26
ASHLAND        CLOUDY    32  30  92 N6        29.99F WCI  26
HAYWARD        MOCLDY    51  30  44 SE10      29.95S
SIREN          PTCLDY    52  31  45 SE10      29.91S
CUMBERLAND     CLOUDY    43  32  65 SE8       29.94S
RICE LAKE      CLOUDY    45  32  61 CALM      29.97R
CHETEK         CLOUDY    48  32  55 SE5       29.96R
LADYSMITH      PTCLDY    46  32  58 SE7       30.00R
EAU CLAIRE     PTCLDY    50  33  52 SE6       29.95S
MENOMONIE      PTCLDY    43  32  65 E5        29.96R
NEW RICHMOND   CLOUDY    46  34  63 SE9       29.90F
OSCEOLA        CLOUDY    49  35  57 SE12G18   29.91F
$$

WIZ003>005-009-010-017-018-200400-
NORTH CENTRAL WISCONSIN

CITY           SKY/WX    TMP DP  RH WIND       PRES   REMARKS
MANITOWISH WTR CLOUDY    37  28  71 SE5       30.02R WCI  33
ARBOR VITAE    CLOUDY    44  28  53 SE6       30.03S
WOODRUFF       CLOUDY    44  28  53 SE6       30.03S
RHINELANDER    CLOUDY    45  29  53 SE7       30.05R
EAGLE RIVER    CLEAR     42  27  54 SE3       30.05R
LAND O LAKES   CLOUDY    41  29  63 SE6       30.07R
PHILLIPS       CLOUDY    45  30  55 E3        30.00S
TOMAHAWK       PTCLDY    41  29  63 CALM      30.04S
MEDFORD        PTCLDY    46  32  57 SE7       30.01F
MERRILL        NOT AVBL
$$

WIZ029-030-035-036-043>047-200400-
CENTRAL WISCONSIN

CITY           SKY/WX    TMP DP  RH WIND       PRES   REMARKS
WAUSAU         CLOUDY    43  32  65 SE8       30.04R
MOSINEE        CLEAR     46  34  61 E7        30.06R
MARSHFIELD     CLOUDY    46  31  55 E5        30.02R
STEVENS POINT  PTCLDY    41  32  71 E7        30.06R
WAUPACA        CLOUDY    43  34  71 CALM      30.09R
WAUTOMA        PTCLDY    38  33  82 CALM      30.06R
WISC RAPIDS    CLOUDY    45  34  65 E6        30.04R
CAMP DOUGLAS   CLOUDY    40  33  74 SE5       30.02R
$$

WIZ011>013-019>022-031-037>040-048>050-200400-
NORTHEAST WISCONSIN

CITY           SKY/WX    TMP DP  RH WIND       PRES   REMARKS
ANTIGO         PTCLDY    39  32  75 SE9       30.08R WCI  33
SHAWANO        CLOUDY    37  32  83 CALM      30.10R
OCONTO         CLOUDY    32  29  88 CALM      30.12R
STURGEON BAY   PTCLDY    38  32  79 E7        30.13R WCI  33
GREEN BAY      PTCLDY    38  32  79 E6        30.10S WCI  33
MANITOWOC      CLOUDY    33  30  88 MISG      30.13R
APPLETON       PTCLDY    39  28  65 E5        30.08R
CLINTONVILLE   PTCLDY    41  32  70 SE6       30.09R
OSHKOSH        CLOUDY    39  31  72 SE5       30.07R
$$

WIZ032>034-041-042-053>061-200400-
SOUTHWEST WISCONSIN

CITY           SKY/WX    TMP DP  RH WIND       PRES   REMARKS
LA CROSSE      CLOUDY    52  37  56 SE5       29.98R
SPARTA         CLOUDY    43  35  73 CALM      30.02R
VIROQUA        CLOUDY    50  37  62 SE8       30.00R
BOSCOBEL       MOCLDY    46  35  65 CALM      30.01R
PRAIRIE DU CHI CLOUDY    50  35  55 E6        29.99R
PLATTEVILLE    PTCLDY    47  38  69 E10       30.03R
$$

WIZ056-057-062-063-064-067-068-200400-
SOUTH CENTRAL WISCONSIN

CITY           SKY/WX    TMP DP  RH WIND       PRES   REMARKS
REEDSBURG      MOCLDY    45  37  72 NE3       30.03R
BARABOO/DELLS  MOCLDY    52  35  51 CALM      30.04R
LONE ROCK      CLOUDY    47  37  68 E5        30.03R
MINERAL POINT  CLOUDY    52  36  54 SE8       30.03R
MADISON        CLOUDY    47  36  65 SE5       30.04R
MIDDLETON      CLOUDY    39  37  90 CALM      30.05R
WATERTOWN      PTCLDY    43  33  68 E9        30.06S
MONROE         CLOUDY    50  37  62 SE10      30.04R
JANESVILLE     CLEAR     45  36  70 SE6       30.05R
$$

WIZ051-052-058>065-066-070>072-200400-
SOUTHEAST WISCONSIN

CITY           SKY/WX    TMP DP  RH WIND       PRES   REMARKS
MILWAUKEE      CLOUDY    40  32  73 E5        30.10R
WAUKESHA         N/A     36  30  80 E3        30.10R
MILWAUKEE/TIMM CLEAR     39  28  65 CALM      30.11R
RACINE         PTCLDY    39  32  76 SE5       30.11R
KENOSHA        CLOUDY    35  29  78 E5        30.09S WCI  31
FOND DU LAC    MOCLDY    41  29  62 SE8       30.08R
SHEBOYGAN      CLOUDY    35  29  78 CALM      30.11S
WEST BEND      CLOUDY    36  32  87 CALM      30.10S
JUNEAU         PTCLDY    42  32  68 E10       30.08R
$$

LSZ147-162-200400-
LAKE SUPERIOR

STATION/POSITION TIME  TEMP    WIND        PRES    WAVE
                       AIR SEA DIR/SP/G            HT/PER
                 (UTC) (F)     (DEG/KT/KT) (MB)    (FT/S)
DEVILS ISLAND    0300   36      70/ 12/ 13 1016.9F
PORT WING        0240   34      30/ 12/ 15 1015.6S
SAXON HARBOR     0240   32     160/  2/  2 1015.6S
$$

LMZ867-665-643>646-200400-
LAKE MICHIGAN

STATION/POSITION TIME  TEMP    WIND        PRES    WAVE
                       AIR SEA DIR/SP/G            HT/PER
                 (UTC) (F)     (DEG/KT/KT) (MB)    (FT/S)
CHAMBERS ISLAND  0240   38     110/  4/  6 1019.6R
NORTHPORT PIER   0240   37     150/  5/  7 1020.3S
SISTER BAY       0235   38     120/  9/ 13   N/A
ALGOMA LAKESHORE 0155             CALM       N/A
KEWAUNEE LAKESHO 0254   38      CALM  /  3 1019.6R
SHEBOYGAN LAKESH 0300   38      20/  1/  2 1020.0S
PORT WASHINGTON  0240   39      40/  1/  3 1020.7R
MILWAUKEE LAKESH 0300   40      30/  4/  5   N/A
KENOSHA   LAKESH 0300   36        CALM     1019.3
$$

TC  - TEMPERATURE IN CELSIUS
VSB - VISIBILITY IN STATUTE MILES
WCI - WIND CHILL INDEX
HX  - HEAT INDEX




USA.gov is the U.S. government's official web portal to all federal, state and local government web resources and services.